Regional Weather Roundup
Issued by NWS Kansas City/Pleasant Hill, MO

Home | Current Version | Previous Version | Graphics & Text | Print | Product List | Glossary Off
Versions: 1 2 3 4 5 6 7 8 9 10 11 12 13 14 15 16 17 18 19 20 21 22 23 24 25 26 27 28 29 30 31 32 33 34 35 36 37 38 39 40 41 42 43 44 45 46 47 48 49 50

000
ASUS43 KEAX 291610
RWREAX

WEATHER ROUNDUP FOR EASTERN KANSAS AND NORTHWEST MISSOURI
NATIONAL WEATHER SERVICE KANSAS CITY/PLEASANT HILL MO
1100 AM CDT FRI JUL 29 2016

KSZ040-057-103>105-MOZ028-029-037-043-291700-
...KANSAS CITY METROPOLITAN AREA...

CITY           SKY/WX    TMP DP  RH WIND       PRES   REMARKS
K.C. INTL      PTSUNNY   79  64  60 CALM      30.04R
K.C. DOWNTOWN  MOSUNNY   82  63  52 N5        30.01S
LEES SUMMIT    CLOUDY    78  65  63 NE8       30.03R
OLATHE - IXD   MOSUNNY   78  68  71 CALM      30.04R
OLATHE - OJC   MOSUNNY   78  65  63 NE7       30.03R
LAWRENCE       PTSUNNY   79  66  64 N3        30.03S

$$

MOZ001>008-011>017-020>025-030>033-038>040-044>046-053-054-291700-
...NORTHERN AND CENTRAL MISSOURI...

CITY           SKY/WX    TMP DP  RH WIND       PRES   REMARKS
ST. JOSEPH     MOSUNNY   77  65  66 N9        30.03R
MOSBY          PTSUNNY   79  63  57 CALM      30.02S
WHITEMAN AFB   PTSUNNY   78  69  76 N7        30.00R
CLINTON        PTSUNNY   79  72  78 CALM      30.00S
SEDALIA        CLOUDY    80  67  64 CALM      30.02R
WARSAW         NOT AVBL
CHILLICOTHE      N/A     78  66  66 VRB3      30.03R
KIRKSVILLE     CLOUDY    77  64  64 VRB5      30.01S

$$

MOZ041-047>049-056>058-063>065-088>090-097-291700-
...EASTERN AND SOUTHERN MISSOURI...

CITY           SKY/WX    TMP DP  RH WIND       PRES   REMARKS
ST. LOUIS INTL CLOUDY    83  66  56 W3        29.96F
SPIRIT OF STL  CLOUDY    81  70  69 NW5       29.96S
COLUMBIA       MOSUNNY   80  69  69 NW5       30.00S
JEFFERSON CITY PTSUNNY   77  68  73 CALM      29.99S
ROLLA          PTSUNNY   79  70  74 CALM      29.99S
OSAGE BEACH    PTSUNNY   78  72  81 SE7       29.99F
SPRINGFIELD    PTSUNNY   81  71  71 W7        29.99R
BRANSON        PTSUNNY   82  75  78 SW6       30.02S
JOPLIN         CLOUDY    77  71  82 N8        30.02R
WEST PLAINS    CLOUDY    83  69  62 VRB3      30.02S

$$

IAZ060-094-KSZ022-034>040-054-083-096-NEZ052-066-093-291700-
...KANSAS...SOUTHEAST NEBRASKA AND IOWA...

CITY           SKY/WX    TMP DP  RH WIND       PRES   REMARKS
TOPEKA         MOSUNNY   79  66  64 NE7       30.03S
MANHATTAN      PTSUNNY   76  68  76 E7        30.04S
EMPORIA        MOSUNNY   78  67  68 CALM      30.03F
CHANUTE        CLOUDY    77  69  76 N6        30.01F
WICHITA        PTSUNNY   76  68  76 NW12      30.04F
OMAHA          CLOUDY    74  61  63 N7        30.07S
LINCOLN        CLOUDY    72  66  81 E3        30.08S
FALLS CITY     MOSUNNY   77  67  71 NE7       30.04S
LAMONI         MOSUNNY   73  64  73 N12       30.02S
DES MOINES     CLOUDY    70  63  78 N12       30.00F

$$




USA.gov is the U.S. government's official web portal to all federal, state and local government web resources and services.